Home > Weather > Vientiane > Past weeks

Flag for Laos Weather for the Past 2 Weeks in Vientiane, Laos

Now
84 °F

Passing clouds.


Feels Like: 92 °F
Forecast: 78 / 101 °F
Wind: 2 mph from North

Location: Vientiane Airport

Current Time: May 5, 2016 at 8:25:18 AM

Latest Report: May 5, 2016 at 8:00 AM


Visibility: 4 mi

Pressure: 29.83 "Hg

Humidity: 74%

Dew Point: 75 °F

Location of VientianeLocation

Historic Weather in Vientiane — Graph

°F

Vientiane Temperature Yesterday

Maximum temperature yesterday: 95 °F (at 4:00 PM)
Minimum temperature yesterday: 75 °F (at 6:00 AM)
Average temperature yesterday: 87 °F

High & Low Weather Summary for the Past Weeks

 TemperatureHumidityPressure
High104 °F (Apr 26, 2:30 PM)100% (Apr 22, 6:00 AM)29.95 "Hg (Apr 22, 6:00 AM)
Low73 °F (Apr 30, 6:00 AM)40% (Apr 26, 2:30 PM)29.53 "Hg (Apr 23, 5:00 PM)
Average89 °F64%29.73 "Hg
* Reported Apr 20 7:00 AM — May 5 7:00 AM, Vientiane, Weather by CustomWeather, © 2016

Note: Actual official high and low records may vary slightly from our data, if they occured in-between our weather recording intervals... More about our weather records

Advertising

Vientiane Weather History for the Previous 24 Hours

Scroll right to see more
 ConditionsComfort  
Time TempWeatherWind HumidityBarometerVisibility
7:00 AM
Thu, May 5
81 °FFog.2 mph84%29.80 "Hg3 mi
6:30 AM79 °FFog.2 mph89%29.77 "Hg2 mi
6:00 AM79 °FFog.2 mph89%29.77 "Hg2 mi
11:00 PM
Wed, May 4
84 °FFog.2 mph79%29.80 "Hg2 mi
10:30 PM84 °FFog.2 mph79%29.80 "Hg2 mi
10:00 PM86 °FFog.2 mph75%29.80 "Hg2 mi
9:30 PM86 °FFog.2 mph75%29.77 "Hg2 mi
9:00 PM88 °FFog.2 mph70%29.77 "Hg2 mi
8:30 PM88 °FFog.2 mph70%29.74 "Hg2 mi
8:00 PM90 °FFog.2 mph67%29.74 "Hg2 mi
7:30 PM90 °FFog.2 mph67%29.71 "Hg2 mi
7:00 PM90 °FPassing clouds.2 mph67%29.71 "Hg3 mi
6:30 PM90 °FBroken clouds.2 mph63%29.71 "Hg3 mi
6:00 PM91 °FScattered clouds.2 mph59%29.68 "Hg4 mi
5:30 PM93 °FPassing clouds.2 mph56%29.68 "Hg4 mi
5:00 PM95 °FPassing clouds.2 mph56%29.68 "Hg5 mi
4:30 PM95 °FPassing clouds.2 mph53%29.71 "Hg5 mi
4:00 PM95 °FPassing clouds.5 mph53%29.71 "Hg5 mi
3:30 PM93 °FPassing clouds.5 mph56%29.74 "Hg5 mi
3:00 PM93 °FPassing clouds.5 mph56%29.74 "Hg5 mi
2:30 PM93 °FPassing clouds.2 mph53%29.77 "Hg5 mi
2:00 PM93 °FPassing clouds.5 mph53%29.77 "Hg4 mi
1:30 PM93 °FScattered clouds.5 mph49%29.80 "Hg4 mi
1:00 PM93 °FScattered clouds.5 mph53%29.83 "Hg4 mi
12:30 PM90 °FScattered clouds.5 mph63%29.86 "Hg4 mi
12:00 PM90 °FScattered clouds.2 mph63%29.86 "Hg4 mi
11:30 AM88 °FScattered clouds.2 mph66%29.86 "Hg4 mi
11:00 AM86 °FScattered clouds.5 mph70%29.86 "Hg4 mi
10:30 AM86 °FScattered clouds.5 mph70%29.89 "Hg4 mi
10:00 AM84 °FScattered clouds.5 mph70%29.89 "Hg4 mi
9:30 AM82 °FScattered clouds.2 mph74%29.89 "Hg4 mi
9:00 AM81 °FScattered clouds.2 mph79%29.89 "Hg4 mi
8:30 AM79 °FFog.5 mph74%29.86 "Hg3 mi
8:00 AM77 °FFog.5 mph74%29.86 "Hg3 mi
Weather by CustomWeather, © 2016

See weather overviewHow to use our weather pages